Regional Weather Roundup
Issued by NWS

Home | Current Version | Previous Version | Graphics & Text | Print | Product List | Glossary On
Versions: 1 2 3 4 5 6 7 8 9 10 11 12 13 14 15 16 17 18 19 20 21 22 23 24 25 26 27 28 29 30 31 32 33 34 35 36 37 38 39 40 41 42 43 44 45 46 47 48 49 50
000
ASUS45 KCYS 260710
RWRWY

WYOMING REGIONAL WEATHER ROUNDUP
NATIONAL WEATHER SERVICE CHEYENNE WY
1200 AM MST FRI DEC 26 2014

NOTE:  "FAIR" INDICATES FEW OR NO CLOUDS BELOW 12,000 FEET
WITH NO SIGNIFICANT WEATHER AND/OR OBSTRUCTIONS TO VISIBILITY.

WYZ001-260800-
YELLOWSTONE NATIONAL PARK

CITY           SKY/WX    TMP DP  RH WIND       PRES   REMARKS
LK YELLOWSTONE   N/A      1  -3  83 CALM      29.82F
W YELLOWSTONE  NOT AVBL

$$
WYZ002>013-054>058-071-098>099-260800-
NORTHERN WYOMING

CITY           SKY/WX    TMP DP  RH WIND       PRES   REMARKS
JACKSON        CLOUDY    16  10  79 N17       29.81S WCI   0
CODY           CLOUDY    18  16  93 CALM      29.92S
GREYBULL       LGT SNOW  19  17  92 E3        29.97R FOG
WORLAND        CLOUDY    18  15  88 SW5       29.96S WCI  11
SHERIDAN       CLOUDY    19  15  84 W3        29.99F
BUFFALO        CLOUDY    17  15  92 NE6       29.94F WCI   9
GILLETTE       CLOUDY    18  16  92 N3        29.96F
HULETT           N/A    N/A N/A N/A MISG        N/A
NEWCASTLE      FAIR      19  14  79 N14       29.94S WCI   6

$$
WYZ014>020-022>026-101>103-260800-
CENTRAL WYOMING

CITY           SKY/WX    TMP DP  RH WIND       PRES   REMARKS
BIG PINEY      CLOUDY     8   5  87 NE5       29.77S WCI   0
PINEDALE       CLOUDY     5   1  85 W6        29.77S WCI  -6
DUBOIS         NOT AVBL
LANDER         LGT SNOW  18  15  88 NW7       29.87F FOG     WCI   9
RIVERTON       CLOUDY    17  14  88 CALM      29.90S
CASPER         LGT SNOW  15  12  88 NE7       29.90S FOG     WCI   5
DOUGLAS        LGT SNOW  17  14  88 W3        29.92F FOG

$$
WYZ021-027>030-104>119-260800-
SOUTHERN WYOMING

CITY           SKY/WX    TMP DP  RH WIND       PRES   REMARKS
EVANSTON       CLOUDY    15  11  83 E13       29.74S WCI   1
FORT BRIDGER   LGT SNOW  17  16  96 NE8       29.79S WCI   6
ROCK SPRINGS   LGT SNOW  13  10  88 NE22G29   29.75S FOG     WCI  -6
DIXON          CLOUDY    23  18  82 E14       29.67F WCI  10
RAWLINS        CLOUDY    13   9  84 NE22      29.75F WCI  -6
SARATOGA       CLOUDY    14  12  92 SW3       29.71S
LARAMIE        LGT SNOW  11   7  84 E7        29.74F FOG     WCI   0
CHEYENNE       CLOUDY    15  11  83 NE8       29.82F FOG     WCI   4
TORRINGTON     LGT SNOW  21  18  88 N5        29.93S FOG     WCI  15
PINE BLUFFS    CLOUDY    19  16  86 N13       29.87F WCI   7

$$



USA.gov is the U.S. government's official web portal to all federal, state and local government web resources and services.